Time,TemperatureF,DewpointF,PressureIn,WindDirection,WindDirectionDegrees,WindSpeedMPH,WindSpeedGustMPH,Humidity,HourlyPrecipIn,Conditions,Clouds,dailyrainin,SoftwareType,DateUTC
2013-04-15 00:00:00,49.0,33.5,30.22,SSE,159,0.0,2.0,55,0.00,,CLR,0.00,VWS V14.00,2013-04-15 04:00:00,
2013-04-15 00:01:00,49.0,33.5,30.22,SSE,159,0.0,2.0,55,0.00,,FEW075,0.00,VWS V14.00,2013-04-15 04:01:00,
2013-04-15 00:03:00,49.0,33.1,30.22,East,82,0.0,2.0,54,0.00,,FEW075,0.00,VWS V14.00,2013-04-15 04:03:00,
2013-04-15 00:08:00,48.9,33.0,30.22,East,92,0.0,3.0,54,0.00,,FEW075,0.00,VWS V14.00,2013-04-15 04:08:00,
2013-04-15 00:14:00,48.7,33.3,30.22,East,96,1.0,3.0,55,0.00,,FEW075,0.00,VWS V14.00,2013-04-15 04:14:00,
2013-04-15 00:19:00,48.6,32.7,30.22,NE,51,0.0,5.0,54,0.00,,FEW075,0.00,VWS V14.00,2013-04-15 04:19:00,
2013-04-15 00:24:00,48.5,32.6,30.23,ESE,112,0.0,5.0,54,0.00,,FEW075,0.00,VWS V14.00,2013-04-15 04:24:00,
2013-04-15 00:29:00,48.4,33.0,30.23,ENE,71,1.0,5.0,55,0.00,,FEW075,0.00,VWS V14.00,2013-04-15 04:29:00,
2013-04-15 00:30:00,48.4,33.0,30.23,SE,128,1.0,5.0,55,0.00,,CLR,0.00,VWS V14.00,2013-04-15 04:30:00,
2013-04-15 00:34:00,48.3,32.9,30.22,NE,53,2.0,4.0,55,0.00,,FEW075,0.00,VWS V14.00,2013-04-15 04:34:00,
2013-04-15 00:39:00,48.4,33.0,30.23,East,84,0.0,6.0,55,0.00,,FEW075,0.00,VWS V14.00,2013-04-15 04:39:00,
2013-04-15 00:44:00,48.2,32.8,30.22,East,81,0.0,6.0,55,0.00,,FEW075,0.00,VWS V14.00,2013-04-15 04:44:00,
2013-04-15 00:50:00,48.0,33.1,30.22,ENE,76,0.0,6.0,56,0.00,,FEW075,0.00,VWS V14.00,2013-04-15 04:50:00,
2013-04-15 00:55:00,47.8,32.9,30.23,ENE,76,1.0,6.0,56,0.00,,FEW075,0.00,VWS V14.00,2013-04-15 04:55:00,
2013-04-15 01:00:00,47.8,32.9,30.22,ENE,74,1.0,1.0,56,0.00,,CLR,0.00,VWS V14.00,2013-04-15 05:00:00,
2013-04-15 01:05:00,47.7,32.8,30.22,East,79,1.0,5.0,56,0.00,,CLR,0.00,VWS V14.00,2013-04-15 05:05:00,
2013-04-15 01:11:00,47.6,32.7,30.22,ESE,107,1.0,5.0,56,0.00,,CLR,0.00,VWS V14.00,2013-04-15 05:11:00,
2013-04-15 01:16:00,47.4,33.0,30.22,ENE,57,0.0,5.0,57,0.00,,CLR,0.00,VWS V14.00,2013-04-15 05:16:00,
2013-04-15 01:21:00,47.1,33.1,30.22,ENE,57,0.0,5.0,58,0.00,,CLR,0.00,VWS V14.00,2013-04-15 05:21:00,
2013-04-15 01:26:00,46.9,32.5,30.22,East,80,1.0,5.0,57,0.00,,CLR,0.00,VWS V14.00,2013-04-15 05:26:00,
2013-04-15 01:30:00,46.9,32.5,30.22,ENE,63,1.0,5.0,57,0.00,,CLR,0.00,VWS V14.00,2013-04-15 05:30:00,
2013-04-15 01:31:00,46.8,32.8,30.22,ENE,66,0.0,1.0,58,0.00,,CLR,0.00,VWS V14.00,2013-04-15 05:31:00,
2013-04-15 01:36:00,46.8,32.4,30.22,ENE,68,1.0,2.0,57,0.00,,CLR,0.00,VWS V14.00,2013-04-15 05:36:00,
2013-04-15 01:42:00,46.8,32.4,30.22,NE,44,0.0,3.0,57,0.00,,CLR,0.00,VWS V14.00,2013-04-15 05:42:00,
2013-04-15 01:47:00,46.6,33.0,30.22,NE,55,1.0,3.0,59,0.00,,CLR,0.00,VWS V14.00,2013-04-15 05:47:00,
2013-04-15 01:52:00,46.4,32.4,30.22,NE,56,1.0,3.0,58,0.00,,CLR,0.00,VWS V14.00,2013-04-15 05:52:00,
2013-04-15 01:57:00,46.4,32.4,30.22,NE,51,0.0,3.0,58,0.00,,CLR,0.00,VWS V14.00,2013-04-15 05:57:00,
2013-04-15 02:00:00,46.3,32.3,30.22,NE,51,0.0,3.0,58,0.00,,CLR,0.00,VWS V14.00,2013-04-15 06:00:00,
2013-04-15 02:03:00,46.3,32.3,30.23,ENE,75,0.0,1.0,58,0.00,,CLR,0.00,VWS V14.00,2013-04-15 06:03:00,
2013-04-15 02:08:00,46.2,32.2,30.23,ENE,77,2.0,2.0,58,0.00,,CLR,0.00,VWS V14.00,2013-04-15 06:08:00,
2013-04-15 02:13:00,46.2,32.7,30.23,East,94,0.0,2.0,59,0.00,,CLR,0.00,VWS V14.00,2013-04-15 06:13:00,
2013-04-15 02:18:00,46.0,32.5,30.24,East,79,0.0,3.0,59,0.00,,CLR,0.00,VWS V14.00,2013-04-15 06:18:00,
2013-04-15 02:23:00,46.1,32.6,30.24,East,82,0.0,3.0,59,0.00,,CLR,0.00,VWS V14.00,2013-04-15 06:23:00,
2013-04-15 02:28:00,46.1,32.6,30.24,ESE,108,0.0,5.0,59,0.00,,CLR,0.00,VWS V14.00,2013-04-15 06:28:00,
2013-04-15 02:30:00,46.1,32.6,30.24,East,82,1.0,5.0,59,0.00,,CLR,0.00,VWS V14.00,2013-04-15 06:30:00,
2013-04-15 02:34:00,46.2,32.7,30.25,SE,133,1.0,4.0,59,0.00,,CLR,0.00,VWS V14.00,2013-04-15 06:34:00,
2013-04-15 02:39:00,46.3,32.3,30.25,ESE,122,0.0,4.0,58,0.00,,CLR,0.00,VWS V14.00,2013-04-15 06:39:00,
2013-04-15 02:44:00,46.2,32.2,30.24,East,98,0.0,6.0,58,0.00,,CLR,0.00,VWS V14.00,2013-04-15 06:44:00,
2013-04-15 02:49:00,46.3,32.3,30.25,East,101,1.0,6.0,58,0.00,,CLR,0.00,VWS V14.00,2013-04-15 06:49:00,
2013-04-15 02:54:00,46.3,32.3,30.25,ENE,70,4.0,6.0,58,0.00,,CLR,0.00,VWS V14.00,2013-04-15 06:54:00,
2013-04-15 02:59:00,46.2,32.2,30.25,ENE,59,0.0,6.0,58,0.00,,CLR,0.00,VWS V14.00,2013-04-15 06:59:00,
2013-04-15 03:00:00,46.2,32.2,30.25,ENE,59,0.0,6.0,58,0.00,,CLR,0.00,VWS V14.00,2013-04-15 07:00:00,
2013-04-15 03:05:00,46.0,32.1,30.25,SE,131,0.0,1.0,58,0.00,,CLR,0.00,VWS V14.00,2013-04-15 07:05:00,
2013-04-15 03:30:00,45.8,30.6,30.26,ESE,103,0.0,7.0,55,0.00,,CLR,0.00,VWS V14.00,2013-04-15 07:30:00,
2013-04-15 03:41:00,45.7,30.5,30.27,SSE,148,0.0,5.0,55,0.00,,CLR,0.00,VWS V14.00,2013-04-15 07:41:00,
2013-04-15 03:42:00,45.7,30.5,30.27,East,91,0.0,5.0,55,0.00,,CLR,0.00,VWS V14.00,2013-04-15 07:42:00,
2013-04-15 03:48:00,45.5,30.7,30.27,ESE,114,1.0,5.0,56,0.00,,CLR,0.00,VWS V14.00,2013-04-15 07:48:00,
2013-04-15 03:50:00,45.5,30.7,30.27,ENE,68,0.0,5.0,56,0.00,,CLR,0.00,VWS V14.00,2013-04-15 07:50:00,
2013-04-15 03:51:00,45.4,30.6,30.27,ESE,104,1.0,5.0,56,0.00,,CLR,0.00,VWS V14.00,2013-04-15 07:51:00,
2013-04-15 03:56:00,45.3,30.5,30.28,East,101,0.0,5.0,56,0.00,,CLR,0.00,VWS V14.00,2013-04-15 07:56:00,
2013-04-15 04:00:00,45.2,30.5,30.28,SE,129,0.0,5.0,56,0.00,,CLR,0.00,VWS V14.00,2013-04-15 08:00:00,
2013-04-15 04:01:00,45.2,30.9,30.28,SE,129,0.0,1.0,57,0.00,,CLR,0.00,VWS V14.00,2013-04-15 08:01:00,
2013-04-15 04:07:00,45.0,31.1,30.28,SSE,155,0.0,1.0,58,0.00,,CLR,0.00,VWS V14.00,2013-04-15 08:07:00,
2013-04-15 04:12:00,45.0,31.1,30.28,SE,127,0.0,1.0,58,0.00,,CLR,0.00,VWS V14.00,2013-04-15 08:12:00,
2013-04-15 04:17:00,45.0,31.1,30.28,East,86,0.0,2.0,58,0.00,,CLR,0.00,VWS V14.00,2013-04-15 08:17:00,
2013-04-15 04:22:00,44.9,31.5,30.29,East,89,1.0,2.0,59,0.00,,CLR,0.00,VWS V14.00,2013-04-15 08:22:00,
2013-04-15 04:27:00,44.7,31.3,30.28,East,89,0.0,2.0,59,0.00,,CLR,0.00,VWS V14.00,2013-04-15 08:27:00,
2013-04-15 04:30:00,44.7,31.3,30.28,East,89,0.0,2.0,59,0.00,,CLR,0.00,VWS V14.00,2013-04-15 08:30:00,
2013-04-15 04:33:00,44.7,31.3,30.28,East,87,0.0,1.0,59,0.00,,CLR,0.00,VWS V14.00,2013-04-15 08:33:00,
2013-04-15 04:38:00,44.6,31.6,30.28,East,98,1.0,2.0,60,0.00,,CLR,0.00,VWS V14.00,2013-04-15 08:38:00,
2013-04-15 04:40:00,44.7,31.7,30.28,East,99,0.0,2.0,60,0.00,,CLR,0.00,VWS V14.00,2013-04-15 08:40:00,
2013-04-15 04:41:00,44.6,31.6,30.28,East,98,0.0,2.0,60,0.00,,CLR,0.00,VWS V14.00,2013-04-15 08:41:00,
2013-04-15 04:43:00,44.6,31.6,30.29,East,99,0.0,2.0,60,0.00,,CLR,0.00,VWS V14.00,2013-04-15 08:43:00,
2013-04-15 04:49:00,44.4,31.8,30.29,East,98,0.0,2.0,61,0.00,,CLR,0.00,VWS V14.00,2013-04-15 08:49:00,
2013-04-15 04:54:00,44.4,32.2,30.29,East,98,0.0,2.0,62,0.00,,CLR,0.00,VWS V14.00,2013-04-15 08:54:00,
2013-04-15 04:59:00,44.4,32.2,30.29,East,98,0.0,2.0,62,0.00,,CLR,0.00,VWS V14.00,2013-04-15 08:59:00,
2013-04-15 05:00:00,44.4,32.6,30.29,East,98,0.0,2.0,63,0.00,,CLR,0.00,VWS V14.00,2013-04-15 09:00:00,
2013-04-15 05:04:00,44.3,32.5,30.29,East,98,0.0,0.0,63,0.00,,CLR,0.00,VWS V14.00,2013-04-15 09:04:00,
2013-04-15 05:10:00,44.2,32.4,30.30,East,98,0.0,1.0,63,0.00,,CLR,0.00,VWS V14.00,2013-04-15 09:10:00,
2013-04-15 05:15:00,44.1,32.7,30.30,East,98,0.0,1.0,64,0.00,,CLR,0.00,VWS V14.00,2013-04-15 09:15:00,
2013-04-15 05:20:00,44.1,32.7,30.30,East,99,0.0,1.0,64,0.00,,CLR,0.00,VWS V14.00,2013-04-15 09:20:00,
2013-04-15 05:26:00,44.0,33.0,30.30,East,98,0.0,1.0,65,0.00,,CLR,0.00,VWS V14.00,2013-04-15 09:26:00,
2013-04-15 05:30:00,43.9,32.9,30.30,East,98,0.0,1.0,65,0.00,,CLR,0.00,VWS V14.00,2013-04-15 09:30:00,
2013-04-15 05:31:00,43.7,32.7,30.30,East,99,0.0,0.0,65,0.00,,CLR,0.00,VWS V14.00,2013-04-15 09:31:00,
2013-04-15 05:37:00,43.6,33.0,30.30,East,99,1.0,1.0,66,0.00,,CLR,0.00,VWS V14.00,2013-04-15 09:37:00,
2013-04-15 05:42:00,43.6,33.8,30.30,East,99,0.0,1.0,68,0.00,,CLR,0.00,VWS V14.00,2013-04-15 09:42:00,
2013-04-15 05:47:00,43.3,33.8,30.30,East,98,0.0,1.0,69,0.00,,CLR,0.00,VWS V14.00,2013-04-15 09:47:00,
2013-04-15 05:52:00,43.1,33.6,30.30,East,99,0.0,1.0,69,0.00,,CLR,0.00,VWS V14.00,2013-04-15 09:52:00,
2013-04-15 05:57:00,42.8,34.1,30.30,East,98,0.0,1.0,71,0.00,,CLR,0.00,VWS V14.00,2013-04-15 09:57:00,
2013-04-15 06:00:00,42.7,34.0,30.30,East,98,0.0,1.0,71,0.00,,CLR,0.00,VWS V14.00,2013-04-15 10:00:00,
2013-04-15 06:02:00,42.5,33.8,30.31,East,99,0.0,0.0,71,0.00,,CLR,0.00,VWS V14.00,2013-04-15 10:02:00,
2013-04-15 06:07:00,42.5,33.4,30.31,East,98,0.0,0.0,70,0.00,,CLR,0.00,VWS V14.00,2013-04-15 10:07:00,
2013-04-15 06:13:00,42.3,33.2,30.31,East,99,0.0,0.0,70,0.00,,CLR,0.00,VWS V14.00,2013-04-15 10:13:00,
2013-04-15 06:18:00,42.1,33.4,30.31,East,98,0.0,0.0,71,0.00,,CLR,0.00,VWS V14.00,2013-04-15 10:18:00,
2013-04-15 06:23:00,42.2,33.8,30.31,East,99,0.0,0.0,72,0.00,,CLR,0.00,VWS V14.00,2013-04-15 10:23:00,
2013-04-15 06:28:00,42.2,33.8,30.31,East,98,0.0,0.0,72,0.00,,CLR,0.00,VWS V14.00,2013-04-15 10:28:00,
2013-04-15 06:30:00,42.2,33.8,30.32,East,99,0.0,0.0,72,0.00,,CLR,0.00,VWS V14.00,2013-04-15 10:30:00,
2013-04-15 06:34:00,42.0,34.0,30.32,East,98,0.0,0.0,73,0.00,,CLR,0.00,VWS V14.00,2013-04-15 10:34:00,
2013-04-15 06:39:00,41.8,33.8,30.32,East,98,0.0,0.0,73,0.00,,CLR,0.00,VWS V14.00,2013-04-15 10:39:00,
2013-04-15 06:44:00,41.9,33.9,30.32,East,98,0.0,0.0,73,0.00,,CLR,0.00,VWS V14.00,2013-04-15 10:44:00,
2013-04-15 06:49:00,41.8,34.5,30.32,East,98,0.0,1.0,75,0.00,,CLR,0.00,VWS V14.00,2013-04-15 10:49:00,
2013-04-15 06:54:00,41.6,34.6,30.32,East,98,0.0,1.0,76,0.00,,CLR,0.00,VWS V14.00,2013-04-15 10:54:00,
2013-04-15 06:59:00,41.6,35.3,30.33,East,98,0.0,1.0,78,0.00,,CLR,0.00,VWS V14.00,2013-04-15 10:59:00,
2013-04-15 07:00:00,41.6,35.3,30.33,East,98,0.0,1.0,78,0.00,,CLR,0.00,VWS V14.00,2013-04-15 11:00:00,
2013-04-15 07:05:00,41.6,35.6,30.33,East,98,0.0,0.0,79,0.00,,FEW065,0.00,VWS V14.00,2013-04-15 11:05:00,
2013-04-15 07:10:00,41.8,36.1,30.33,East,99,0.0,0.0,80,0.00,,FEW065,0.00,VWS V14.00,2013-04-15 11:10:00,
2013-04-15 07:15:00,42.0,35.3,30.33,East,98,0.0,0.0,77,0.00,,FEW065,0.00,VWS V14.00,2013-04-15 11:15:00,
2013-04-15 07:21:00,42.4,36.4,30.34,East,99,0.0,0.0,79,0.00,,FEW065,0.00,VWS V14.00,2013-04-15 11:21:00,
2013-04-15 07:26:00,42.8,35.8,30.34,East,99,0.0,0.0,76,0.00,,FEW065,0.00,VWS V14.00,2013-04-15 11:26:00,
2013-04-15 07:30:00,43.1,36.1,30.34,East,98,0.0,0.0,76,0.00,,CLR,0.00,VWS V14.00,2013-04-15 11:30:00,
2013-04-15 07:32:00,43.3,35.9,30.34,East,98,0.0,0.0,75,0.00,,FEW065,0.00,VWS V14.00,2013-04-15 11:32:00,
2013-04-15 07:37:00,43.7,36.0,30.34,East,98,0.0,1.0,74,0.00,,FEW065,0.00,VWS V14.00,2013-04-15 11:37:00,
2013-04-15 07:42:00,44.1,36.0,30.35,East,84,0.0,1.0,73,0.00,,FEW065,0.00,VWS V14.00,2013-04-15 11:42:00,
2013-04-15 07:47:00,44.6,36.2,30.35,East,84,0.0,2.0,72,0.00,,FEW065,0.00,VWS V14.00,2013-04-15 11:47:00,
2013-04-15 07:52:00,45.0,35.8,30.35,East,81,0.0,2.0,70,0.00,,FEW065,0.00,VWS V14.00,2013-04-15 11:52:00,
2013-04-15 07:58:00,45.3,35.7,30.36,ESE,113,0.0,2.0,69,0.00,,FEW065,0.00,VWS V14.00,2013-04-15 11:58:00,
2013-04-15 08:00:00,45.5,35.9,30.36,ESE,113,1.0,2.0,69,0.00,,CLR,0.00,VWS V14.00,2013-04-15 12:00:00,
2013-04-15 08:03:00,45.6,35.7,30.36,SE,141,0.0,2.0,68,0.00,,BKN100,0.00,VWS V14.00,2013-04-15 12:03:00,
2013-04-15 08:08:00,45.9,35.6,30.36,SE,135,0.0,2.0,67,0.00,,BKN100,0.00,VWS V14.00,2013-04-15 12:08:00,
2013-04-15 08:13:00,46.1,35.8,30.36,ESE,110,3.0,3.0,67,0.00,,BKN100,0.00,VWS V14.00,2013-04-15 12:13:00,
2013-04-15 08:19:00,46.2,34.7,30.37,East,101,0.0,3.0,64,0.00,,BKN100,0.00,VWS V14.00,2013-04-15 12:19:00,
2013-04-15 08:24:00,46.4,35.3,30.37,SE,129,1.0,6.0,65,0.00,,BKN100,0.00,VWS V14.00,2013-04-15 12:24:00,
2013-04-15 08:29:00,46.6,33.9,30.37,ESE,110,1.0,6.0,61,0.00,,BKN100,0.00,VWS V14.00,2013-04-15 12:29:00,
2013-04-15 08:30:00,46.6,33.9,30.37,ESE,110,1.0,6.0,61,0.00,,CLR,0.00,VWS V14.00,2013-04-15 12:30:00,
2013-04-15 08:35:00,46.8,33.7,30.37,ESE,110,0.0,6.0,60,0.00,,BKN100,0.00,VWS V14.00,2013-04-15 12:35:00,
2013-04-15 08:40:00,47.0,33.8,30.37,SE,132,2.0,6.0,60,0.00,,BKN100,0.00,VWS V14.00,2013-04-15 12:40:00,
2013-04-15 08:45:00,47.2,34.0,30.37,South,177,1.0,6.0,60,0.00,,BKN100,0.00,VWS V14.00,2013-04-15 12:45:00,
2013-04-15 08:51:00,47.3,34.1,30.37,ESE,113,4.0,6.0,60,0.00,,BKN100,0.00,VWS V14.00,2013-04-15 12:51:00,
2013-04-15 08:56:00,47.4,33.0,30.37,NE,55,4.0,7.0,57,0.00,,BKN100,0.00,VWS V14.00,2013-04-15 12:56:00,
2013-04-15 09:00:00,47.5,33.5,30.36,ESE,122,3.0,7.0,58,0.00,,CLR,0.00,VWS V14.00,2013-04-15 13:00:00,
2013-04-15 09:01:00,47.6,33.1,30.36,ENE,63,2.0,4.0,57,0.00,,OVC060,0.00,VWS V14.00,2013-04-15 13:01:00,
2013-04-15 09:06:00,47.8,32.9,30.36,ESE,114,2.0,5.0,56,0.00,,OVC060,0.00,VWS V14.00,2013-04-15 13:06:00,
2013-04-15 09:12:00,47.8,32.4,30.36,SSE,159,1.0,8.0,55,0.00,,OVC060,0.00,VWS V14.00,2013-04-15 13:12:00,
2013-04-15 09:17:00,48.1,32.7,30.36,East,89,1.0,8.0,55,0.00,,OVC060,0.00,VWS V14.00,2013-04-15 13:17:00,
2013-04-15 09:22:00,48.3,32.9,30.36,SSE,162,3.0,8.0,55,0.00,,OVC060,0.00,VWS V14.00,2013-04-15 13:22:00,
2013-04-15 09:27:00,48.7,32.8,30.36,East,89,4.0,8.0,54,0.00,,OVC060,0.00,VWS V14.00,2013-04-15 13:27:00,
2013-04-15 09:30:00,48.7,32.8,30.36,East,101,3.0,8.0,54,0.00,,CLR,0.00,VWS V14.00,2013-04-15 13:30:00,
2013-04-15 09:32:00,49.0,33.5,30.35,ENE,67,1.0,4.0,55,0.00,,OVC060,0.00,VWS V14.00,2013-04-15 13:32:00,
2013-04-15 09:37:00,49.8,33.8,30.35,North,1,1.0,5.0,54,0.00,,OVC060,0.00,VWS V14.00,2013-04-15 13:37:00,
2013-04-15 09:43:00,50.0,32.6,30.35,SE,128,3.0,5.0,51,0.00,,OVC060,0.00,VWS V14.00,2013-04-15 13:43:00,
2013-04-15 09:48:00,50.3,32.9,30.35,SE,125,1.0,6.0,51,0.00,,OVC060,0.00,VWS V14.00,2013-04-15 13:48:00,
2013-04-15 09:53:00,50.5,32.1,30.35,SSE,158,1.0,6.0,49,0.00,,OVC060,0.00,VWS V14.00,2013-04-15 13:53:00,
2013-04-15 09:59:00,51.1,32.6,30.35,ENE,75,2.0,6.0,49,0.00,,OVC060,0.00,VWS V14.00,2013-04-15 13:59:00,
2013-04-15 10:00:00,51.1,32.6,30.35,ESE,113,1.0,6.0,49,0.00,,CLR,0.00,VWS V14.00,2013-04-15 14:00:00,
2013-04-15 10:04:00,51.9,33.4,30.35,ENE,73,3.0,4.0,49,0.00,,FEW110,0.00,VWS V14.00,2013-04-15 14:04:00,
2013-04-15 10:09:00,51.9,32.3,30.35,ESE,103,1.0,6.0,47,0.00,,FEW110,0.00,VWS V14.00,2013-04-15 14:09:00,
2013-04-15 10:15:00,52.1,33.0,30.35,ENE,70,3.0,6.0,48,0.00,,FEW110,0.00,VWS V14.00,2013-04-15 14:15:00,
2013-04-15 10:20:00,52.2,32.6,30.35,ENE,73,6.0,10.0,47,0.00,,FEW110,0.00,VWS V14.00,2013-04-15 14:20:00,
2013-04-15 10:25:00,52.4,32.8,30.35,ENE,61,3.0,10.0,47,0.00,,FEW110,0.00,VWS V14.00,2013-04-15 14:25:00,
2013-04-15 10:30:00,52.6,32.4,30.35,ESE,116,4.0,4.0,46,0.00,,FEW110,0.00,VWS V14.00,2013-04-15 14:30:00,
2013-04-15 10:35:00,52.6,33.0,30.35,NW,326,1.0,6.0,47,0.00,,FEW110,0.00,VWS V14.00,2013-04-15 14:35:00,
2013-04-15 10:41:00,52.5,32.3,30.35,SE,139,3.0,10.0,46,0.00,,FEW110,0.00,VWS V14.00,2013-04-15 14:41:00,
2013-04-15 10:46:00,52.9,33.2,30.35,SSW,193,1.0,10.0,47,0.00,,FEW110,0.00,VWS V14.00,2013-04-15 14:46:00,
2013-04-15 10:51:00,53.7,34.0,30.35,SSE,159,5.0,10.0,47,0.00,,FEW110,0.00,VWS V14.00,2013-04-15 14:51:00,
2013-04-15 10:56:00,53.7,34.5,30.35,SE,143,5.0,10.0,48,0.00,,FEW110,0.00,VWS V14.00,2013-04-15 14:56:00,
2013-04-15 11:00:00,53.8,34.1,30.35,SE,146,4.0,10.0,47,0.00,,CLR,0.00,VWS V14.00,2013-04-15 15:00:00,
2013-04-15 11:02:00,54.1,33.2,30.35,East,89,4.0,8.0,45,0.00,,FEW110,0.00,VWS V14.00,2013-04-15 15:02:00,
2013-04-15 11:07:00,54.4,35.1,30.35,ESE,117,4.0,9.0,48,0.00,,FEW110,0.00,VWS V14.00,2013-04-15 15:07:00,
2013-04-15 11:12:00,54.6,33.7,30.34,East,86,2.0,9.0,45,0.00,,CLR,0.00,VWS V14.00,2013-04-15 15:12:00,
2013-04-15 11:18:00,54.8,32.8,30.34,ENE,66,3.0,9.0,43,0.00,,CLR,0.00,VWS V14.00,2013-04-15 15:18:00,
2013-04-15 11:23:00,54.8,34.4,30.34,SSE,149,5.0,9.0,46,0.00,,CLR,0.00,VWS V14.00,2013-04-15 15:23:00,
2013-04-15 11:28:00,54.8,33.9,30.34,ESE,107,6.0,9.0,45,0.00,,CLR,0.00,VWS V14.00,2013-04-15 15:28:00,
2013-04-15 11:30:00,54.9,34.0,30.34,SE,124,7.0,9.0,45,0.00,,CLR,0.00,VWS V14.00,2013-04-15 15:30:00,
2013-04-15 11:34:00,55.5,36.2,30.34,ENE,72,1.0,9.0,48,0.00,,CLR,0.00,VWS V14.00,2013-04-15 15:34:00,
2013-04-15 11:39:00,55.9,34.9,30.34,ESE,109,7.0,9.0,45,0.00,,CLR,0.00,VWS V14.00,2013-04-15 15:39:00,
2013-04-15 11:44:00,55.7,33.6,30.34,ESE,117,6.0,9.0,43,0.00,,CLR,0.00,VWS V14.00,2013-04-15 15:44:00,
2013-04-15 11:49:00,55.1,33.0,30.34,ESE,121,2.0,9.0,43,0.00,,CLR,0.00,VWS V14.00,2013-04-15 15:49:00,
2013-04-15 11:55:00,55.7,34.7,30.33,SE,138,1.0,9.0,45,0.00,,CLR,0.00,VWS V14.00,2013-04-15 15:55:00,
2013-04-15 12:00:00,56.3,34.1,30.33,ENE,70,2.0,4.0,43,0.00,,CLR,0.00,VWS V14.00,2013-04-15 16:00:00,
2013-04-15 12:05:00,56.9,36.3,30.33,ESE,113,2.0,8.0,46,0.00,,CLR,0.00,VWS V14.00,2013-04-15 16:05:00,
2013-04-15 12:10:00,57.4,35.7,30.33,SE,136,5.0,8.0,44,0.00,,CLR,0.00,VWS V14.00,2013-04-15 16:10:00,
2013-04-15 12:15:00,58.4,36.6,30.32,SSE,151,3.0,8.0,44,0.00,,CLR,0.00,VWS V14.00,2013-04-15 16:15:00,
2013-04-15 12:21:00,57.9,37.3,30.32,SSE,167,2.0,9.0,46,0.00,,CLR,0.00,VWS V14.00,2013-04-15 16:21:00,
2013-04-15 12:27:00,58.0,36.2,30.32,SSW,200,1.0,9.0,44,0.00,,CLR,0.00,VWS V14.00,2013-04-15 16:27:00,
2013-04-15 12:30:00,58.4,36.6,30.32,SSE,152,2.0,9.0,44,0.00,,CLR,0.00,VWS V14.00,2013-04-15 16:30:00,
2013-04-15 12:32:00,58.5,35.5,30.32,SE,131,4.0,6.0,42,0.00,,CLR,0.00,VWS V14.00,2013-04-15 16:32:00,
2013-04-15 12:38:00,58.5,35.5,30.32,SE,129,2.0,10.0,42,0.00,,CLR,0.00,VWS V14.00,2013-04-15 16:38:00,
2013-04-15 12:43:00,58.6,35.6,30.32,ENE,67,5.0,10.0,42,0.00,,CLR,0.00,VWS V14.00,2013-04-15 16:43:00,
2013-04-15 12:48:00,59.1,36.7,30.32,NW,318,2.0,10.0,43,0.00,,CLR,0.00,VWS V14.00,2013-04-15 16:48:00,
2013-04-15 12:54:00,58.9,35.9,30.32,SE,144,3.0,10.0,42,0.00,,CLR,0.00,VWS V14.00,2013-04-15 16:54:00,
2013-04-15 12:59:00,59.7,38.9,30.32,East,87,3.0,10.0,46,0.00,,CLR,0.00,VWS V14.00,2013-04-15 16:59:00,
2013-04-15 13:00:00,59.7,37.2,30.32,ENE,76,2.0,10.0,43,0.00,,CLR,0.00,VWS V14.00,2013-04-15 17:00:00,
2013-04-15 13:04:00,59.6,35.3,30.32,ENE,73,1.0,6.0,40,0.00,,CLR,0.00,VWS V14.00,2013-04-15 17:04:00,
2013-04-15 13:09:00,59.7,38.9,30.31,SSW,197,6.0,7.0,46,0.00,,CLR,0.00,VWS V14.00,2013-04-15 17:09:00,
2013-04-15 13:15:00,59.9,36.8,30.32,SE,125,5.0,10.0,42,0.00,,CLR,0.00,VWS V14.00,2013-04-15 17:15:00,
2013-04-15 13:21:00,60.2,37.6,30.31,ESE,105,6.0,10.0,43,0.00,,CLR,0.00,VWS V14.00,2013-04-15 17:21:00,
2013-04-15 13:23:00,60.2,37.6,30.31,SE,124,2.0,10.0,43,0.00,,CLR,0.00,VWS V14.00,2013-04-15 17:23:00,
2013-04-15 13:26:00,60.5,38.5,30.31,WNW,302,2.0,10.0,44,0.00,,CLR,0.00,VWS V14.00,2013-04-15 17:26:00,
2013-04-15 13:30:00,60.9,37.7,30.31,SSE,162,7.0,10.0,42,0.00,,CLR,0.00,VWS V14.00,2013-04-15 17:30:00,
2013-04-15 13:31:00,60.8,38.8,30.31,SE,136,3.0,7.0,44,0.00,,CLR,0.00,VWS V14.00,2013-04-15 17:31:00,
2013-04-15 13:37:00,60.4,37.8,30.31,South,169,5.0,12.0,43,0.00,,CLR,0.00,VWS V14.00,2013-04-15 17:37:00,
2013-04-15 13:43:00,60.3,40.5,30.31,SSE,159,7.0,12.0,48,0.00,,CLR,0.00,VWS V14.00,2013-04-15 17:43:00,
2013-04-15 13:48:00,60.5,39.1,30.30,SSW,211,3.0,12.0,45,0.00,,CLR,0.00,VWS V14.00,2013-04-15 17:48:00,
2013-04-15 13:53:00,60.6,39.2,30.30,South,176,7.0,12.0,45,0.00,,CLR,0.00,VWS V14.00,2013-04-15 17:53:00,
2013-04-15 13:59:00,61.4,41.0,30.30,SE,143,4.0,12.0,47,0.00,,CLR,0.00,VWS V14.00,2013-04-15 17:59:00,
2013-04-15 14:00:00,61.3,38.6,30.30,SE,139,10.0,12.0,43,0.00,,CLR,0.00,VWS V14.00,2013-04-15 18:00:00,
2013-04-15 14:04:00,60.8,39.3,30.31,SSE,163,7.0,11.0,45,0.00,,FEW110,0.00,VWS V14.00,2013-04-15 18:04:00,
2013-04-15 14:09:00,60.7,38.7,30.31,SSE,156,3.0,11.0,44,0.00,,FEW110,0.00,VWS V14.00,2013-04-15 18:09:00,
2013-04-15 14:15:00,60.9,38.9,30.31,ESE,108,6.0,11.0,44,0.00,,FEW110,0.00,VWS V14.00,2013-04-15 18:15:00,
2013-04-15 14:20:00,60.7,38.1,30.31,SE,125,4.0,11.0,43,0.00,,FEW110,0.00,VWS V14.00,2013-04-15 18:20:00,
2013-04-15 14:25:00,61.6,39.5,30.31,East,94,3.0,11.0,44,0.00,,FEW110,0.00,VWS V14.00,2013-04-15 18:25:00,
2013-04-15 14:29:00,61.5,40.5,30.31,East,84,2.0,11.0,46,0.00,,FEW110,0.00,VWS V14.00,2013-04-15 18:29:00,
2013-04-15 14:30:00,61.5,39.4,30.31,SE,132,6.0,6.0,44,0.00,,FEW110,0.00,VWS V14.00,2013-04-15 18:30:00,
2013-04-15 14:32:00,61.4,38.7,30.31,East,94,3.0,7.0,43,0.00,,FEW110,0.00,VWS V14.00,2013-04-15 18:32:00,
2013-04-15 14:37:00,60.9,38.3,30.31,SE,142,3.0,10.0,43,0.00,,FEW110,0.00,VWS V14.00,2013-04-15 18:37:00,
2013-04-15 14:42:00,60.6,39.2,30.31,ENE,60,7.0,10.0,45,0.00,,FEW110,0.00,VWS V14.00,2013-04-15 18:42:00,
2013-04-15 14:47:00,60.6,38.0,30.31,SE,133,2.0,10.0,43,0.00,,FEW110,0.00,VWS V14.00,2013-04-15 18:47:00,
2013-04-15 14:53:00,61.2,39.1,30.30,ESE,122,7.0,14.0,44,0.00,,FEW110,0.00,VWS V14.00,2013-04-15 18:53:00,
2013-04-15 14:58:00,61.0,38.4,30.30,East,92,4.0,14.0,43,0.00,,FEW110,0.00,VWS V14.00,2013-04-15 18:58:00,
2013-04-15 15:00:00,61.3,38.6,30.30,SSW,208,1.0,14.0,43,0.00,,CLR,0.00,VWS V14.00,2013-04-15 19:00:00,
2013-04-15 15:03:00,61.3,38.6,30.30,ESE,104,4.0,10.0,43,0.00,,FEW110,0.00,VWS V14.00,2013-04-15 19:03:00,
2013-04-15 15:08:00,60.9,40.0,30.30,SE,139,5.0,11.0,46,0.00,,FEW110,0.00,VWS V14.00,2013-04-15 19:08:00,
2013-04-15 15:13:00,61.3,39.2,30.30,ESE,114,2.0,11.0,44,0.00,,FEW110,0.00,VWS V14.00,2013-04-15 19:13:00,
2013-04-15 15:18:00,61.1,39.0,30.30,SSE,165,4.0,11.0,44,0.00,,FEW110,0.00,VWS V14.00,2013-04-15 19:18:00,
2013-04-15 15:23:00,60.4,39.0,30.30,NNE,28,6.0,11.0,45,0.00,,FEW110,0.00,VWS V14.00,2013-04-15 19:23:00,
2013-04-15 15:28:00,60.0,39.7,30.30,SE,132,3.0,11.0,47,0.00,,FEW110,0.00,VWS V14.00,2013-04-15 19:28:00,
2013-04-15 15:30:00,60.2,39.4,30.30,SE,143,4.0,11.0,46,0.00,,CLR,0.00,VWS V14.00,2013-04-15 19:30:00,
2013-04-15 15:33:00,60.7,40.9,30.29,SSE,158,8.0,12.0,48,0.00,,FEW110,0.00,VWS V14.00,2013-04-15 19:33:00,
2013-04-15 15:39:00,60.7,40.4,30.29,NE,53,7.0,12.0,47,0.00,,FEW110,0.00,VWS V14.00,2013-04-15 19:39:00,
2013-04-15 15:44:00,60.8,39.3,30.29,SSE,151,4.0,12.0,45,0.00,,FEW110,0.00,VWS V14.00,2013-04-15 19:44:00,
2013-04-15 15:50:00,61.3,40.4,30.29,ENE,63,2.0,12.0,46,0.00,,FEW110,0.00,VWS V14.00,2013-04-15 19:50:00,
2013-04-15 15:56:00,61.3,39.8,30.29,SE,145,4.0,12.0,45,0.00,,FEW110,0.00,VWS V14.00,2013-04-15 19:56:00,
2013-04-15 15:58:00,61.3,39.8,30.29,SSW,199,4.0,12.0,45,0.00,,FEW110,0.00,VWS V14.00,2013-04-15 19:58:00,
2013-04-15 15:59:00,61.4,40.5,30.29,ESE,108,2.0,12.0,46,0.00,,FEW110,0.00,VWS V14.00,2013-04-15 19:59:00,
2013-04-15 16:00:00,61.5,40.0,30.29,South,181,5.0,12.0,45,0.00,,CLR,0.00,VWS V14.00,2013-04-15 20:00:00,
2013-04-15 16:02:00,61.6,40.6,30.29,ENE,77,2.0,6.0,46,0.00,,OVC090,0.00,VWS V14.00,2013-04-15 20:02:00,
2013-04-15 16:03:00,61.7,42.9,30.29,SE,143,5.0,10.0,50,0.00,,OVC090,0.00,VWS V14.00,2013-04-15 20:03:00,
2013-04-15 16:04:00,61.8,43.0,30.29,ESE,105,6.0,10.0,50,0.00,,OVC090,0.00,VWS V14.00,2013-04-15 20:04:00,
2013-04-15 16:07:00,61.6,40.1,30.29,South,169,5.0,11.0,45,0.00,,OVC090,0.00,VWS V14.00,2013-04-15 20:07:00,
2013-04-15 16:12:00,60.8,39.3,30.29,ESE,123,4.0,13.0,45,0.00,,OVC090,0.00,VWS V14.00,2013-04-15 20:12:00,
2013-04-15 16:17:00,59.9,39.1,30.29,South,172,5.0,13.0,46,0.00,,OVC090,0.00,VWS V14.00,2013-04-15 20:17:00,
2013-04-15 16:23:00,59.5,39.8,30.29,South,187,3.0,13.0,48,0.00,,OVC090,0.00,VWS V14.00,2013-04-15 20:23:00,
2013-04-15 16:28:00,59.6,39.9,30.29,SSE,155,4.0,13.0,48,0.00,,OVC090,0.00,VWS V14.00,2013-04-15 20:28:00,
2013-04-15 16:30:00,59.6,40.4,30.29,South,176,7.0,13.0,49,0.00,,CLR,0.00,VWS V14.00,2013-04-15 20:30:00,
2013-04-15 16:33:00,59.4,40.8,30.29,South,174,4.0,9.0,50,0.00,,OVC090,0.00,VWS V14.00,2013-04-15 20:33:00,
2013-04-15 16:38:00,59.2,40.6,30.29,SSE,147,4.0,9.0,50,0.00,,OVC090,0.00,VWS V14.00,2013-04-15 20:38:00,
2013-04-15 16:43:00,58.9,39.8,30.29,ESE,121,3.0,9.0,49,0.00,,OVC090,0.00,VWS V14.00,2013-04-15 20:43:00,
2013-04-15 16:48:00,58.9,39.8,30.28,SE,128,7.0,9.0,49,0.00,,OVC090,0.00,VWS V14.00,2013-04-15 20:48:00,
2013-04-15 16:53:00,58.7,40.1,30.29,SSE,151,4.0,9.0,50,0.00,,OVC090,0.00,VWS V14.00,2013-04-15 20:53:00,
2013-04-15 16:58:00,58.6,40.0,30.29,SSE,163,4.0,9.0,50,0.00,,OVC090,0.00,VWS V14.00,2013-04-15 20:58:00,
2013-04-15 17:00:00,58.6,39.5,30.29,SSW,211,4.0,9.0,49,0.00,,CLR,0.00,VWS V14.00,2013-04-15 21:00:00,
2013-04-15 17:03:00,58.6,39.5,30.29,SSE,159,4.0,9.0,49,0.00,,BKN110,0.00,VWS V14.00,2013-04-15 21:03:00,
2013-04-15 17:08:00,58.4,38.8,30.29,ESE,121,4.0,9.0,48,0.00,,BKN110,0.00,VWS V14.00,2013-04-15 21:08:00,
2013-04-15 17:13:00,58.1,39.1,30.29,SE,134,5.0,9.0,49,0.00,,BKN110,0.00,VWS V14.00,2013-04-15 21:13:00,
2013-04-15 17:19:00,57.9,38.9,30.30,SSE,152,7.0,10.0,49,0.00,,BKN110,0.00,VWS V14.00,2013-04-15 21:19:00,
2013-04-15 17:24:00,57.7,38.2,30.30,SE,145,6.0,10.0,48,0.00,,BKN110,0.00,VWS V14.00,2013-04-15 21:24:00,
2013-04-15 17:29:00,57.6,39.1,30.30,SE,139,6.0,10.0,50,0.00,,BKN110,0.00,VWS V14.00,2013-04-15 21:29:00,
2013-04-15 17:30:00,57.6,38.6,30.30,ESE,122,7.0,10.0,49,0.00,,CLR,0.00,VWS V14.00,2013-04-15 21:30:00,
2013-04-15 17:34:00,57.4,38.4,30.30,SE,131,5.0,8.0,49,0.00,,BKN110,0.00,VWS V14.00,2013-04-15 21:34:00,
2013-04-15 17:39:00,57.3,38.8,30.30,SSE,166,4.0,8.0,50,0.00,,BKN110,0.00,VWS V14.00,2013-04-15 21:39:00,
2013-04-15 17:44:00,57.2,38.8,30.31,ESE,121,3.0,8.0,50,0.00,,BKN110,0.00,VWS V14.00,2013-04-15 21:44:00,
2013-04-15 17:49:00,57.0,39.1,30.31,SE,145,5.0,8.0,51,0.00,,BKN110,0.00,VWS V14.00,2013-04-15 21:49:00,
2013-04-15 17:54:00,56.9,38.5,30.31,SSE,156,6.0,8.0,50,0.00,,BKN110,0.00,VWS V14.00,2013-04-15 21:54:00,
2013-04-15 17:59:00,56.8,38.4,30.31,South,186,4.0,8.0,50,0.00,,BKN110,0.00,VWS V14.00,2013-04-15 21:59:00,
2013-04-15 18:00:00,56.8,38.9,30.31,SSE,162,4.0,8.0,51,0.00,,CLR,0.00,VWS V14.00,2013-04-15 22:00:00,
2013-04-15 18:04:00,56.8,37.9,30.31,SSE,155,6.0,8.0,49,0.00,,BKN110,0.00,VWS V14.00,2013-04-15 22:04:00,
2013-04-15 18:09:00,56.6,39.2,30.32,SSW,198,8.0,9.0,52,0.00,,BKN110,0.00,VWS V14.00,2013-04-15 22:09:00,
2013-04-15 18:14:00,56.3,38.4,30.32,SSE,163,5.0,9.0,51,0.00,,BKN110,0.00,VWS V14.00,2013-04-15 22:14:00,
2013-04-15 18:20:00,56.0,38.2,30.32,SSE,158,7.0,9.0,51,0.00,,BKN110,0.00,VWS V14.00,2013-04-15 22:20:00,
2013-04-15 18:25:00,55.8,38.0,30.32,SSE,165,6.0,9.0,51,0.00,,BKN110,0.00,VWS V14.00,2013-04-15 22:25:00,
2013-04-15 18:30:00,55.6,38.3,30.32,South,176,4.0,5.0,52,0.00,,BKN110,0.00,VWS V14.00,2013-04-15 22:30:00,
2013-04-15 18:35:00,55.4,37.1,30.32,SSE,154,5.0,7.0,50,0.00,,BKN110,0.00,VWS V14.00,2013-04-15 22:35:00,
2013-04-15 18:40:00,55.1,37.3,30.32,SSE,166,6.0,8.0,51,0.00,,BKN110,0.00,VWS V14.00,2013-04-15 22:40:00,
2013-04-15 18:45:00,54.9,37.1,30.32,SSE,158,3.0,8.0,51,0.00,,BKN110,0.00,VWS V14.00,2013-04-15 22:45:00,
2013-04-15 18:50:00,54.7,36.9,30.32,SE,127,4.0,8.0,51,0.00,,BKN110,0.00,VWS V14.00,2013-04-15 22:50:00,
2013-04-15 18:55:00,54.5,36.3,30.31,SE,144,4.0,13.0,50,0.00,,BKN110,0.00,VWS V14.00,2013-04-15 22:55:00,
2013-04-15 19:00:00,54.2,36.5,30.32,SE,128,5.0,7.0,51,0.00,,OVC095,0.00,VWS V14.00,2013-04-15 23:00:00,
2013-04-15 19:06:00,53.9,36.7,30.32,SSW,208,6.0,7.0,52,0.00,,OVC095,0.00,VWS V14.00,2013-04-15 23:06:00,
2013-04-15 19:11:00,53.7,36.0,30.33,SE,125,8.0,11.0,51,0.00,,OVC095,0.00,VWS V14.00,2013-04-15 23:11:00,
2013-04-15 19:16:00,53.5,35.3,30.33,SSE,165,4.0,11.0,50,0.00,,OVC095,0.00,VWS V14.00,2013-04-15 23:16:00,
2013-04-15 19:21:00,53.2,35.1,30.33,South,176,5.0,11.0,50,0.00,,OVC095,0.00,VWS V14.00,2013-04-15 23:21:00,
2013-04-15 19:26:00,53.0,34.9,30.33,SSE,153,6.0,11.0,50,0.00,,OVC095,0.00,VWS V14.00,2013-04-15 23:26:00,
2013-04-15 19:30:00,52.9,34.8,30.34,SSE,155,5.0,12.0,50,0.00,,CLR,0.00,VWS V14.00,2013-04-15 23:30:00,
2013-04-15 19:31:00,52.8,35.2,30.34,South,169,4.0,5.0,51,0.00,,OVC095,0.00,VWS V14.00,2013-04-15 23:31:00,
2013-04-15 19:37:00,52.6,35.5,30.34,SSE,149,5.0,6.0,52,0.00,,OVC095,0.00,VWS V14.00,2013-04-15 23:37:00,
2013-04-15 19:42:00,52.5,35.9,30.34,SSE,162,2.0,6.0,53,0.00,,OVC095,0.00,VWS V14.00,2013-04-15 23:42:00,
2013-04-15 19:47:00,52.1,36.4,30.34,SSE,152,4.0,6.0,55,0.00,,OVC095,0.00,VWS V14.00,2013-04-15 23:47:00,
2013-04-15 19:52:00,51.9,36.7,30.34,South,173,4.0,8.0,56,0.00,,OVC095,0.00,VWS V14.00,2013-04-15 23:52:00,
2013-04-15 19:57:00,51.6,36.4,30.34,SE,133,3.0,8.0,56,0.00,,OVC095,0.00,VWS V14.00,2013-04-15 23:57:00,
2013-04-15 20:00:00,51.6,36.4,30.35,SSE,166,2.0,8.0,56,0.00,,CLR,0.00,VWS V14.00,2013-04-16 00:00:00,
2013-04-15 20:02:00,51.4,36.7,30.35,SSE,159,2.0,4.0,57,0.00,,SCT110,0.00,VWS V14.00,2013-04-16 00:02:00,
2013-04-15 20:07:00,51.2,36.5,30.35,SSE,160,2.0,5.0,57,0.00,,SCT110,0.00,VWS V14.00,2013-04-16 00:07:00,
2013-04-15 20:12:00,51.0,36.3,30.35,South,184,2.0,5.0,57,0.00,,SCT110,0.00,VWS V14.00,2013-04-16 00:12:00,
2013-04-15 20:17:00,50.8,36.6,30.35,SSE,152,1.0,5.0,58,0.00,,SCT110,0.00,VWS V14.00,2013-04-16 00:17:00,
2013-04-15 20:22:00,50.6,36.8,30.35,SE,145,2.0,5.0,59,0.00,,SCT110,0.00,VWS V14.00,2013-04-16 00:22:00,
2013-04-15 20:27:00,50.5,36.3,30.35,SSE,156,2.0,5.0,58,0.00,,SCT110,0.00,VWS V14.00,2013-04-16 00:27:00,
2013-04-15 20:30:00,50.5,36.3,30.36,SSE,160,2.0,5.0,58,0.00,,CLR,0.00,VWS V14.00,2013-04-16 00:30:00,
2013-04-15 20:32:00,50.6,36.4,30.36,SSE,158,2.0,5.0,58,0.00,,SCT110,0.00,VWS V14.00,2013-04-16 00:32:00,
2013-04-15 20:38:00,50.6,36.4,30.36,SE,129,1.0,5.0,58,0.00,,SCT110,0.00,VWS V14.00,2013-04-16 00:38:00,
2013-04-15 20:43:00,50.6,36.4,30.36,SSE,149,2.0,5.0,58,0.00,,SCT110,0.00,VWS V14.00,2013-04-16 00:43:00,
2013-04-15 20:48:00,50.7,36.9,30.36,South,177,1.0,5.0,59,0.00,,SCT110,0.00,VWS V14.00,2013-04-16 00:48:00,
2013-04-15 20:53:00,50.6,36.4,30.36,ESE,122,2.0,5.0,58,0.00,,SCT110,0.00,VWS V14.00,2013-04-16 00:53:00,
2013-04-15 20:58:00,50.7,36.5,30.36,SSE,164,2.0,5.0,58,0.00,,SCT110,0.00,VWS V14.00,2013-04-16 00:58:00,
2013-04-15 21:00:00,50.7,36.9,30.36,SSE,148,1.0,5.0,59,0.00,,CLR,0.00,VWS V14.00,2013-04-16 01:00:00,
2013-04-15 21:03:00,50.7,36.9,30.37,South,169,2.0,3.0,59,0.00,,OVC085,0.00,VWS V14.00,2013-04-16 01:03:00,
2013-04-15 21:08:00,50.8,37.4,30.36,SSE,162,2.0,4.0,60,0.00,,OVC085,0.00,VWS V14.00,2013-04-16 01:08:00,
2013-04-15 21:13:00,50.7,37.3,30.36,SSE,158,3.0,4.0,60,0.00,,OVC085,0.00,VWS V14.00,2013-04-16 01:13:00,
2013-04-15 21:18:00,50.6,37.7,30.36,SE,132,3.0,4.0,61,0.00,,OVC085,0.00,VWS V14.00,2013-04-16 01:18:00,
2013-04-15 21:23:00,50.6,37.7,30.36,SE,136,5.0,5.0,61,0.00,,OVC085,0.00,VWS V14.00,2013-04-16 01:23:00,
2013-04-15 21:28:00,50.6,37.7,30.36,SSW,194,0.0,5.0,61,0.00,,OVC085,0.00,VWS V14.00,2013-04-16 01:28:00,
2013-04-15 21:30:00,50.6,37.7,30.36,SSE,151,3.0,6.0,61,0.00,,CLR,0.00,VWS V14.00,2013-04-16 01:30:00,
2013-04-15 21:33:00,50.5,38.0,30.36,SE,135,1.0,3.0,62,0.00,,OVC085,0.00,VWS V14.00,2013-04-16 01:33:00,
2013-04-15 21:38:00,50.4,37.9,30.36,SSE,148,1.0,3.0,62,0.00,,OVC085,0.00,VWS V14.00,2013-04-16 01:38:00,
2013-04-15 21:43:00,50.4,37.9,30.36,SE,124,2.0,4.0,62,0.00,,OVC085,0.00,VWS V14.00,2013-04-16 01:43:00,
2013-04-15 21:48:00,50.5,37.6,30.36,ESE,115,3.0,4.0,61,0.00,,OVC085,0.00,VWS V14.00,2013-04-16 01:48:00,
2013-04-15 21:54:00,50.5,37.6,30.37,ESE,118,1.0,4.0,61,0.00,,OVC085,0.00,VWS V14.00,2013-04-16 01:54:00,
2013-04-15 21:59:00,50.4,38.3,30.37,SE,125,0.0,4.0,63,0.00,,OVC085,0.00,VWS V14.00,2013-04-16 01:59:00,
2013-04-15 22:00:00,50.4,37.9,30.36,ESE,121,1.0,4.0,62,0.00,,CLR,0.00,VWS V14.00,2013-04-16 02:00:00,
2013-04-15 22:04:00,50.3,38.2,30.36,SE,142,3.0,4.0,63,0.00,,OVC090,0.00,VWS V14.00,2013-04-16 02:04:00,
2013-04-15 22:09:00,50.2,38.1,30.37,SE,132,1.0,4.0,63,0.00,,OVC090,0.00,VWS V14.00,2013-04-16 02:09:00,
2013-04-15 22:14:00,50.1,38.0,30.37,SE,139,3.0,5.0,63,0.00,,OVC090,0.00,VWS V14.00,2013-04-16 02:14:00,
2013-04-15 22:19:00,50.0,37.9,30.36,East,79,1.0,5.0,63,0.00,,OVC090,0.00,VWS V14.00,2013-04-16 02:19:00,
2013-04-15 22:24:00,50.0,37.9,30.36,East,89,2.0,5.0,63,0.00,,OVC090,0.00,VWS V14.00,2013-04-16 02:24:00,
2013-04-15 22:29:00,49.9,37.4,30.36,SE,139,1.0,5.0,62,0.00,,OVC090,0.00,VWS V14.00,2013-04-16 02:29:00,
2013-04-15 22:30:00,49.9,37.4,30.36,SE,134,1.0,5.0,62,0.00,,CLR,0.00,VWS V14.00,2013-04-16 02:30:00,
2013-04-15 22:34:00,49.9,37.8,30.37,SE,143,2.0,3.0,63,0.00,,OVC090,0.00,VWS V14.00,2013-04-16 02:34:00,
2013-04-15 22:39:00,49.8,37.3,30.37,ESE,111,1.0,4.0,62,0.00,,OVC090,0.00,VWS V14.00,2013-04-16 02:39:00,
2013-04-15 22:44:00,49.8,37.3,30.37,SE,124,1.0,5.0,62,0.00,,OVC090,0.00,VWS V14.00,2013-04-16 02:44:00,
2013-04-15 22:50:00,49.7,37.6,30.37,SE,131,1.0,5.0,63,0.00,,OVC090,0.00,VWS V14.00,2013-04-16 02:50:00,
2013-04-15 22:55:00,49.6,37.9,30.37,ESE,105,4.0,5.0,64,0.00,,OVC090,0.00,VWS V14.00,2013-04-16 02:55:00,
2013-04-15 23:00:00,49.6,38.3,30.37,SE,129,2.0,2.0,65,0.00,,OVC090,0.00,VWS V14.00,2013-04-16 03:00:00,
2013-04-15 23:05:00,49.6,38.3,30.37,SE,131,0.0,2.0,65,0.00,,OVC100,0.00,VWS V14.00,2013-04-16 03:05:00,
2013-04-15 23:10:00,49.5,38.6,30.37,SE,131,0.0,2.0,66,0.00,,OVC100,0.00,VWS V14.00,2013-04-16 03:10:00,
2013-04-15 23:15:00,49.4,38.5,30.37,SE,133,0.0,2.0,66,0.00,,OVC100,0.00,VWS V14.00,2013-04-16 03:15:00,
2013-04-15 23:20:00,49.4,38.5,30.37,SE,136,0.0,2.0,66,0.00,,OVC100,0.00,VWS V14.00,2013-04-16 03:20:00,
2013-04-15 23:25:00,49.4,38.9,30.37,SE,132,1.0,2.0,67,0.00,,OVC100,0.00,VWS V14.00,2013-04-16 03:25:00,
2013-04-15 23:30:00,49.4,38.9,30.38,SE,132,0.0,0.0,67,0.00,,OVC100,0.00,VWS V14.00,2013-04-16 03:30:00,
2013-04-15 23:36:00,49.3,38.8,30.38,East,84,3.0,3.0,67,0.00,,OVC100,0.00,VWS V14.00,2013-04-16 03:36:00,
2013-04-15 23:41:00,49.3,39.2,30.38,ESE,107,1.0,3.0,68,0.00,,OVC100,0.00,VWS V14.00,2013-04-16 03:41:00,
2013-04-15 23:46:00,49.2,39.5,30.38,SE,139,3.0,4.0,69,0.00,,OVC100,0.00,VWS V14.00,2013-04-16 03:46:00,
2013-04-15 23:51:00,49.1,39.8,30.38,SE,146,0.0,4.0,70,0.00,,OVC100,0.00,VWS V14.00,2013-04-16 03:51:00,
2013-04-15 23:56:00,49.1,40.1,30.38,SSE,160,1.0,4.0,71,0.00,,OVC100,0.00,VWS V14.00,2013-04-16 03:56:00,